Back to catalog

COSMOS 2360

AliveMilitaryLEO
NORAD 25406·PAYLOAD·🇷🇺 Russia

Launched Jul 28, 1998 from Baikonur Cosmodrome

Loading…

Next Passes (next 24 hours)

TLE

FreshSource: Space-Track

Epoch: Sep 14, 2026, 12:54 UTC

1 25406U 98045A   26257.53762220 -.00000258  00000-0 -11305-3 0  9992
2 25406  70.7180  88.5396 0007828 238.7873 121.2480 14.12379976450651

Track COSMOS 2360 in real time with AllMySat

Download on the App Store